sat.trackr.live / text

‹ back to catalog

STARLINK-11309 [DTC]

NORAD 61202 · 2024-171C

PAYLOAD ACTIVE UNKNOWN

§ Identity

Operator
Country
US
Launch date
2024-09-20
Launch site
AFWTR
Launch vehicle
Mass (kg)
RCS (m²)

Purposes: comms

External: N2YO · Heavens-Above · Gunter

§ Orbital elements

Epoch: 2026-05-25T01:36:37.229184Z

Period
91.74 min
Inclination
53.1576°
Eccentricity
0.0000290
Mean motion
15.69735332 rev/d
Perigee alt
359.5 km
Apogee alt
359.8 km
Semi-major
6,737.8 km
B*
2.6460e-5
RAAN
159.8191°
Arg perigee
40.2067°
Mean anomaly
319.8972°
Rev number
9,639

§ Raw data

STARLINK-11309 [DTC]1 61202U 24171C   26145.06709756  .00002622  00000+0  26460-4 0  99972 61202  53.1576 159.8191 0000290  40.2067 319.8972 15.69735332 96394

JSON: /api/v1/satellites/61202 · /tle

For live sub-satellite position, see the globe view (requires WebGL).

§ Visibility from observer

Set your observer location to see the next 7 days of passes ≥ 10°. The values pass through the URL so the page stays shareable.

No JS? Fill the form by hand. The geolocation button needs JavaScript.